Weather History for K1H2 - September, 2013

Change the Weather History Date:

Tuesday, September 24, 2013

  Actual Average (KMTO) Record (KMTO)
Temperature  
Mean Temperature 66 °F 63 °F  
Max Temperature 81 °F 75 °F 90 °F (2007)
Min Temperature 50 °F 52 °F 35 °F (1983)
Degree Days  
Heating Degree Days 0 4  
Month to date heating degree days 35  
Since 1 July heating degree days 40  
Cooling Degree Days 0 2  
Month to date cooling degree days 106  
Year to date cooling degree days 1026  
Growing Degree Days 16 (Base 50)    
Moisture  
Dew Point 51 °F    
Average Humidity 62    
Maximum Humidity 87    
Minimum Humidity 33    
Precipitation  
Precipitation 0.00 in 0.09 in 3.93 in (1961)
Month to date precipitation 2.41  
Year to date precipitation 28.31  
Sea Level Pressure  
Sea Level Pressure 29.93 in    
Wind  
Wind Speed 4 mph (East)    
Max Wind Speed 13 mph    
Max Gust Speed 16 mph    
Visibility 10 miles    
Events Rain    
T = Trace of Precipitation, MM = Missing Value Source: NWS Daily Summary

Daily Weather History Graph

Daily Weather History Graph

Search for Another Location

Airport or City:

Trip Planner

Search our weather history database for the weather conditions in past years. The results will help you decide how hot, cold, wet, or windy it might be!

Date:

Astronomy

Sep. 24, 2013 Rise Set
Actual Time 6:43 AM CDT 6:47 PM CDT
Civil Twilight 6:17 AM CDT 7:14 PM CDT
Nautical Twilight 5:46 AM CDT 7:45 PM CDT
Astronomical Twilight 5:14 AM CDT 8:16 PM CDT
Moon 10:07 PM CDT (9/24) 11:55 AM CDT (9/24)
Length of Visible Light 12h 56m
Length of Day
12h 03m
Waning Gibbous, 73% of the Moon is Illuminated
Sep 24
Waning Gibbous
Sep 26
Last Quarter
Oct 4
New
Oct 11
First Quarter
Oct 18
Full

Hourly Weather History & Observations

Time (CDT) Temp. Dew Point Humidity Pressure Visibility Wind Dir Wind Speed Gust Speed Precip Events Conditions
12:15 AM 54.1 °F 47.3 °F 78% 29.99 in 10.0 mi East 4.6 mph - N/A   Clear
12:35 AM 54.0 °F 47.3 °F 78% 29.99 in 10.0 mi East 4.6 mph - N/A   Clear
12:55 AM 53.6 °F 47.1 °F 79% 29.99 in 10.0 mi East 4.6 mph - N/A   Clear
1:15 AM 53.4 °F 46.9 °F 79% 29.99 in 10.0 mi East 3.5 mph - N/A   Clear
1:35 AM 52.3 °F 46.6 °F 81% 30.00 in 10.0 mi Calm Calm - N/A   Clear
1:55 AM 52.3 °F 47.1 °F 82% 30.00 in 10.0 mi East 3.5 mph - N/A   Clear
2:15 AM 52.7 °F 47.3 °F 82% 30.00 in 10.0 mi East 3.5 mph - N/A   Clear
2:35 AM 52.5 °F 47.5 °F 83% 29.99 in 10.0 mi East 3.5 mph - N/A   Clear
2:55 AM 50.7 °F 45.7 °F 83% 29.99 in 10.0 mi East 3.5 mph - N/A   Clear
3:15 AM 50.2 °F 46.6 °F 87% 29.99 in 10.0 mi Calm Calm - N/A   Clear
3:35 AM 50.0 °F 46.4 °F 87% 29.99 in 10.0 mi East 3.5 mph - N/A   Clear
3:55 AM 50.2 °F 46.6 °F 87% 29.99 in 10.0 mi Calm Calm - N/A   Clear
4:15 AM 50.2 °F 46.6 °F 87% 29.99 in 10.0 mi East 3.5 mph - N/A   Clear
4:35 AM 50.0 °F 46.4 °F 87% 29.99 in 10.0 mi East 4.6 mph - N/A   Clear
4:55 AM 51.1 °F 47.3 °F 87% 29.99 in 10.0 mi Calm Calm - N/A   Clear
5:15 AM 50.5 °F 46.8 °F 87% 30.00 in 10.0 mi East 3.5 mph - N/A   Clear
5:35 AM 50.2 °F 46.6 °F 87% 30.00 in 10.0 mi East 3.5 mph - N/A   Clear
5:55 AM 50.5 °F 46.9 °F 87% 30.00 in 10.0 mi Calm Calm - N/A   Clear
6:15 AM 50.2 °F 46.6 °F 87% 30.00 in 7.0 mi East 3.5 mph - N/A   Clear
6:35 AM 50.7 °F 47.1 °F 87% 30.00 in 10.0 mi Calm Calm - N/A   Clear
6:55 AM 50.9 °F 47.3 °F 87% 30.00 in 7.0 mi East 3.5 mph - N/A   Clear
7:15 AM 51.8 °F 47.7 °F 86% 30.00 in 7.0 mi East 3.5 mph - N/A   Clear
7:35 AM 52.9 °F 48.2 °F 84% 30.00 in 10.0 mi East 5.8 mph - N/A   Clear
7:55 AM 54.1 °F 48.9 °F 82% 29.99 in 10.0 mi East 5.8 mph - N/A   Clear
8:15 AM 56.1 °F 49.8 °F 79% 29.99 in 10.0 mi ESE 5.8 mph - N/A   Clear
8:35 AM 57.4 °F 50.2 °F 77% 29.99 in 10.0 mi ESE 5.8 mph - N/A   Clear
8:55 AM 59.9 °F 50.0 °F 70% 29.99 in 10.0 mi ESE 8.1 mph - N/A   Clear
9:15 AM 61.5 °F 50.7 °F 68% 29.98 in 10.0 mi East 8.1 mph - N/A   Clear
9:35 AM 64.8 °F 52.2 °F 64% 29.98 in 10.0 mi ESE 5.8 mph - N/A   Clear
9:55 AM 65.8 °F 52.0 °F 61% 29.97 in 7.0 mi East 5.8 mph - N/A   Clear
10:15 AM 68.5 °F 53.4 °F 58% 29.96 in 10.0 mi East 4.6 mph - N/A   Clear
10:35 AM 69.6 °F 53.1 °F 56% 29.97 in 10.0 mi East 3.5 mph - N/A   Clear
10:55 AM 71.2 °F 53.6 °F 54% 29.96 in 10.0 mi East 4.6 mph - N/A   Clear
11:15 AM 73.2 °F 53.8 °F 50% 29.95 in 10.0 mi ESE 6.9 mph - N/A   Scattered Clouds
11:35 AM 74.5 °F 54.0 °F 49% 29.95 in 10.0 mi ESE 6.9 mph - N/A   Clear
11:55 AM 76.3 °F 53.8 °F 45% 29.94 in 10.0 mi East 6.9 mph - N/A   Clear
12:15 PM 77.9 °F 53.1 °F 42% 29.93 in 10.0 mi ESE 8.1 mph - N/A   Clear
12:35 PM 78.8 °F 53.1 °F 41% 29.92 in 10.0 mi East 8.1 mph - N/A   Clear
12:55 PM 79.5 °F 50.5 °F 36% 29.91 in 10.0 mi SE 12.7 mph 16.1 mph N/A   Clear
1:15 PM 79.7 °F 50.7 °F 36% 29.90 in 10.0 mi ESE 11.5 mph - N/A   Clear
1:35 PM 81.1 °F 50.2 °F 34% 29.90 in 10.0 mi East 8.1 mph - N/A   Clear
1:55 PM 81.3 °F 50.0 °F 33% 29.90 in 10.0 mi ESE 9.2 mph - N/A   Clear
2:15 PM 79.5 °F 50.9 °F 37% 29.89 in 10.0 mi SE 9.2 mph - N/A   Scattered Clouds
2:35 PM 78.8 °F 49.8 °F 36% 29.89 in 10.0 mi ESE 5.8 mph - N/A   Mostly Cloudy
2:55 PM 79.3 °F 49.6 °F 35% 29.88 in 10.0 mi SE 6.9 mph - N/A   Scattered Clouds
3:15 PM 80.1 °F 49.6 °F 34% 29.88 in 10.0 mi SSE 5.8 mph - N/A   Mostly Cloudy
3:35 PM 79.2 °F 49.8 °F 36% 29.87 in 10.0 mi ESE 5.8 mph - N/A   Scattered Clouds
3:55 PM 79.2 °F 50.2 °F 36% 29.87 in 10.0 mi SSE 4.6 mph - N/A   Mostly Cloudy
4:15 PM 80.1 °F 50.2 °F 35% 29.86 in 10.0 mi South 4.6 mph - N/A   Mostly Cloudy
4:35 PM 79.9 °F 50.2 °F 35% 29.86 in 10.0 mi SSE 6.9 mph - N/A   Scattered Clouds
4:55 PM 79.9 °F 48.7 °F 34% 29.86 in 10.0 mi Calm Calm - N/A   Clear
5:15 PM 77.9 °F 50.2 °F 38% 29.86 in 10.0 mi ESE 3.5 mph - N/A   Scattered Clouds
5:35 PM 78.1 °F 51.1 °F 39% 29.85 in 10.0 mi East 5.8 mph - N/A   Scattered Clouds
5:55 PM 77.9 °F 50.9 °F 39% 29.85 in 10.0 mi East 3.5 mph - N/A   Clear
6:15 PM 76.5 °F 52.0 °F 42% 29.85 in 10.0 mi East 4.6 mph - N/A   Scattered Clouds
6:35 PM 73.8 °F 52.9 °F 48% 29.85 in 10.0 mi East 4.6 mph - N/A   Scattered Clouds
6:55 PM 71.8 °F 53.8 °F 53% 29.85 in 10.0 mi East 4.6 mph - N/A   Clear
7:15 PM 71.4 °F 55.0 °F 56% 29.85 in 10.0 mi East 4.6 mph - N/A   Mostly Cloudy
7:35 PM 71.8 °F 55.6 °F 57% 29.86 in 10.0 mi East 4.6 mph - N/A   Overcast
7:55 PM 72.0 °F 55.6 °F 56% 29.86 in 10.0 mi ENE 4.6 mph - N/A   Overcast
8:15 PM 71.6 °F 56.3 °F 58% 29.86 in 10.0 mi ENE 3.5 mph - N/A Rain Light Rain
8:35 PM 71.2 °F 56.3 °F 59% 29.86 in 10.0 mi East 5.8 mph - N/A   Overcast
8:55 PM 71.2 °F 56.3 °F 59% 29.86 in 10.0 mi ENE 6.9 mph - N/A   Overcast
9:15 PM 71.1 °F 56.7 °F 60% 29.87 in 10.0 mi East 4.6 mph - N/A   Overcast
9:35 PM 70.7 °F 57.2 °F 62% 29.87 in 10.0 mi ENE 4.6 mph - N/A   Overcast
9:55 PM 70.3 °F 57.2 °F 63% 29.87 in 10.0 mi East 5.8 mph - N/A   Overcast
10:15 PM 70.0 °F 57.6 °F 65% 29.86 in 10.0 mi East 5.8 mph - N/A   Overcast
10:35 PM 69.3 °F 57.6 °F 66% 29.86 in 10.0 mi East 5.8 mph - N/A   Mostly Cloudy
10:55 PM 68.9 °F 58.1 °F 68% 29.86 in 10.0 mi East 3.5 mph - N/A   Mostly Cloudy
11:15 PM 68.0 °F 58.1 °F 71% 29.86 in 10.0 mi East 4.6 mph - N/A   Scattered Clouds
11:35 PM 67.5 °F 58.5 °F 73% 29.85 in 10.0 mi East 4.6 mph - N/A Rain Light Rain
11:55 PM 66.7 °F 58.6 °F 75% 29.86 in 10.0 mi Calm Calm - N/A Rain Light Rain